SCP
0 0 0 0 0 0 0 0 0 0 0 0 0 0 0 0 0 0 0 0 0 0 0 0 0 0 0 0 0 0 0 0 0 0 0 0 0 0
0 0 0 0 0 0 0 0 0 0 0 0 0 0 0 0 0 0 0 0 0 0 0 0 0 0 0 0 0 0 0 0 0 0 0 0 0 0
0 0 0 0 0 0 0 0 0 0 0 0 0 0 0 0 0 0 0 0 0 0 0 0 0 0 0 0 0 0 0 0 0 0 0 0 0 0
0 0 0 0 0 0 0 0 0 0 0 0 0 0 0 0 0 0 0 0 0 0 0 0 0 0 0 0 0 0 0 0 0 0 0 0 0 0
0 0 0 0 0 0 0 0 0 0 0 0 0 0 0 0 0 0 0 0 0 0 0 0 0 0 0 0 0 0 0 0 0 0 0 0 0 0
0 0 0 0 0 0 0 0 0 0 0 0 0 0 0 0 0 0 0 0 0 0 0 0 0 0 0 0 0 0 0 0 0 0 0 0 0 0
0 0 0 0 0 0 0 0 0 0 0 0 0 0 0 0 0 0 0 0 0 0 0 0 0 0 0 0 0 0 0 0 0 0 0 0 0 0
0 0 0 0 0 0 0 0 0 0 0 0 0 0 0 0 0 0 0 0 0 0 0 0 0 0 0 0 0 0 0 0 0 0 0 0 0 0
0 0 0 0 0 0 0 0 0 0 0 0 0 0 0 0 0 0 0 0 0 0 0 0 0 0 0 0 0 0 0 0 0 0 0 0 0 0
0 0 0 0 0 0 0 0 0 0 0 0 0 0 0 0 0 0 0 0 0 0 0 0 0 0 0 0 0 0 0 0 0 0 0 0 0 0
0 0 0 0 0 0 0 0 0 0 0 0 0 0 0 0 0 0 0 0 0 0 0 0 0 0 0 0 0 0 0 0 0 0 0 0 0 0
0 0 0 0 0 0 0 0 0 0 0 0 0 0 0 0 0 0 0 0 0 0 0 0 0 0 0 0 0 0 0 0 0 0 0 0 0 0
0 0 0 0 0 0 0 0 0 0 0 0 0 0 0 0 0 0 0 0 0 0 0 0 0 0 0 0 0 0 0 0 0 0 0 0 0 0
0 0 0 0 0 0 0 0 0 0 0 0 0 0 0 0 0 0 0 0 0 0 0 0 0 0 0 0 0 0 0 0 0 0 0 0 0 0
0 0 0 0 0 0 0 0 0 0 0 0 0 0 0 0 0 0 0 0 0 0 0 0 0 0 0 0 0 0 0 0 0 0 0 0 0 0
0 0 0 0 0 0 0 0 0 0 0 0 0 0 0 0 0 0 0 0 0 0 0 0 0 0 0 0 0 0 0 0 0 0 0 0 0 0
0 0 0 0 0 0 0 0 0 0 0 0 0 0 0 0 0 0 0 0 0 0 0 0 0 0 0 0 0 0 0 0 0 0 0 0 0 0
0 0 0 0 0 0 0 0 0 0 0 0 0 0 0 0 0 0 0 0 0 0 0 0 0 0 0 0 0 0 0 0 0 0 0 0 0 0
0 0 0 0 0 0 0 0 0 0 0 0 0 0 0 0 0 0 0 0 0 0 0 0 0 0 0 0 0 0 0 0 0 0 0 0 0 0
0 0 0 0 0 0 0 0 0 0 0 0 0 0 0 0 0 0 0 0 0 0 0 0 0 0 0 0 0 0 0 0 0 0 0 0 0 0
0 0 0 0 0 0 0 0 0 0 0 0 0 0 0 0 0 0 0 0 0 0 0 0 0 0 0 0 0 0 0 0 0 0 0 0 0 0
0 0 0 0 0 0 0 0 0 0 0 0 0 0 0 0 0 0 0 0 0 0 0 0 0 0 0 0 0 0 0 0 0 0 0 0 0 0
0 0 0 0 0 0 0 0 0 0 0 0 0 0 0 0 0 0 0 0 0 0 0 0 0 0 0 0 0 0 0 0 0 0 0 0 0 0
Wind_Speed
1 1 1 0 1 1 1 1 2 1 2 3 2 2 2 2 3 2 4 8 8 8 8 8 8 8 9 9 9 10 10 10 10 10 10 10 10 11
0 1 1 1 1 1 1 0 1 2 1 2 2 2 2 1 2 2 4 6 6 6 7 7 7 7 7 8 8 8 8 9 9 9 9 9 9 9
2 2 1 1 1 1 1 1 0 0 1 2 2 2 2 2 2 1 1 2 4 6 6 6 7 7 6 7 7 7 7 8 8 8 8 8 8 8
1 2 2 2 2 1 1 1 1 1 1 2 2 2 2 2 1 1 1 1 2 6 5 5 6 5 5 5 6 6 6 6 7 7 7 7 7 7
0 1 1 2 2 2 2 1 1 1 1 1 2 2 1 1 1 1 1 1 1 3 3 3 4 5 5 5 5 5 5 5 5 6 6 6 7 7
1 1 1 1 2 2 2 2 2 2 1 1 2 2 1 1 1 1 1 1 0 1 2 2 3 3 4 5 5 5 5 5 4 5 5 5 6 6
2 2 1 2 3 1 0 1 2 2 2 1 1 1 1 1 1 1 1 1 1 1 1 1 1 1 2 3 4 4 4 5 5 4 4 5 5 5
3 3 3 4 4 3 2 2 2 1 1 2 1 1 1 1 0 1 1 1 0 1 2 1 1 1 2 3 5 4 4 4 5 4 5 5 5 5
2 2 2 3 5 5 6 5 2 1 2 2 1 1 1 1 1 2 1 2 1 1 2 2 0 1 1 3 6 4 4 4 4 4 4 5 5 5
3 3 3 4 4 4 5 4 4 3 3 3 2 1 1 1 2 2 2 2 2 1 1 3 1 2 1 1 5 3 3 2 3 3 4 4 5 5
3 3 3 3 3 3 5 5 4 4 3 1 2 2 4 4 2 2 2 2 2 1 1 2 2 2 2 1 3 4 2 1 2 2 3 4 5 5
3 3 1 2 4 5 5 5 4 4 4 5 4 4 3 2 2 3 3 3 3 2 1 2 2 2 2 1 0 1 2 1 1 2 3 4 5 5
3 3 3 5 5 4 4 3 2 2 3 2 2 2 2 2 3 3 2 3 3 3 1 2 3 3 3 2 2 1 2 2 2 2 3 3 4 5
3 3 3 6 6 5 4 2 2 2 2 2 2 2 2 2 2 2 2 2 2 3 2 3 3 3 4 5 3 2 2 3 3 3 3 2 4 5
2 2 3 5 5 4 3 4 4 3 3 3 3 3 2 2 1 1 2 2 2 2 3 3 3 4 4 5 5 4 4 3 3 4 4 4 4 3
3 4 4 3 3 2 3 4 4 3 3 3 3 2 2 2 2 2 2 2 3 2 2 3 4 4 4 5 5 5 4 4 3 4 4 5 5 4
4 4 4 4 4 4 4 4 4 4 4 3 3 3 2 2 2 2 2 3 3 3 2 2 3 3 5 5 5 5 5 4 4 5 5 5 5 5
4 4 4 4 4 4 4 4 3 3 3 3 3 3 3 3 3 2 3 3 4 3 3 2 2 3 3 3 4 6 5 5 5 4 5 6 6 5
4 4 4 3 3 3 3 3 3 3 3 3 3 3 3 3 3 3 3 3 4 4 3 3 3 4 5 6 2 4 5 4 4 4 5 6 7 6
4 4 4 3 3 3 3 3 3 2 2 3 3 3 3 3 3 4 4 4 4 4 4 3 3 4 5 6 5 3 5 4 4 5 5 5 6 6
4 4 3 3 3 3 3 3 3 2 3 3 3 3 3 3 4 4 4 4 4 4 4 4 3 5 5 5 5 4 3 5 5 5 6 5 6 6
3 3 3 3 3 3 3 3 3 3 3 3 3 3 3 3 4 4 4 4 4 4 5 3 2 3 4 5 6 6 5 3 4 7 8 6 5 5
3 3 3 3 3 2 3 3 4 3 3 3 3 3 3 3 3 3 3 4 4 4 4 4 3 3 4 5 6 6 7 5 4 4 4 6 10 13
Wind_Direction
241 211 225 168 238 242 226 262 291 247 122 106 101 82 80 63 36 52 62 62 48 43 42 41 43 46 46 45 44 43 42 41 41 38 37 37 35 36
203 223 194 147 117 177 225 256 310 319 70 94 99 91 68 92 71 50 70 81 57 47 43 43 46 50 51 48 46 44 42 40 39 38 36 36 36 36
167 163 162 156 164 153 168 167 144 49 120 108 108 114 124 95 94 72 69 74 84 67 49 46 48 50 51 50 48 45 42 39 38 37 36 35 35 35
146 155 155 147 165 156 170 168 135 137 143 126 133 126 114 95 79 66 80 74 73 82 67 52 47 49 51 50 48 45 41 37 34 32 31 31 31 29
177 174 162 159 165 150 173 149 132 131 145 162 127 114 131 111 132 153 115 59 75 107 113 88 61 53 53 49 46 45 44 39 34 30 27 25 23 20
160 174 180 174 182 171 165 161 159 152 153 162 153 145 148 132 227 230 169 123 53 60 78 80 97 95 67 50 47 47 46 42 38 32 27 22 16 12
180 172 143 87 50 58 121 163 173 182 171 172 173 170 161 165 228 268 286 264 132 18 327 42 103 69 100 84 56 45 44 38 32 28 24 18 11 7
202 191 165 160 145 133 82 45 10 260 193 180 195 209 208 196 249 274 285 283 249 80 306 333 8 18 31 40 59 67 52 36 27 20 16 10 4 4
222 199 180 168 182 177 168 175 170 347 326 291 253 273 268 262 246 252 279 297 315 29 306 293 336 327 44 67 75 67 56 42 34 26 18 15 9 359
225 221 204 193 193 195 178 176 175 176 201 233 259 283 317 307 263 285 293 264 254 171 295 294 310 303 308 111 106 82 51 30 16 8 3 3 355 346
213 223 224 208 144 194 202 194 185 170 141 117 19 33 43 29 339 256 252 256 265 197 180 279 294 296 277 232 129 135 109 40 2 349 346 343 332 312
202 201 186 242 152 188 212 209 208 197 184 175 185 196 209 182 203 247 265 270 282 278 106 270 287 294 277 234 272 203 201 192 237 284 314 327 326 304
204 204 180 166 174 192 232 234 235 237 210 208 211 202 202 204 194 214 244 268 280 281 332 269 284 285 280 282 278 279 292 290 264 257 252 276 295 298
210 204 165 155 168 186 207 190 190 228 227 221 228 233 232 223 212 206 217 233 269 293 297 274 276 284 282 281 279 270 273 284 290 296 298 262 249 251
208 128 138 158 169 178 189 194 201 216 219 225 231 234 236 240 217 204 223 229 250 266 283 279 274 275 274 281 288 290 288 281 277 288 291 288 281 271
195 152 146 156 191 193 181 196 214 223 226 231 238 235 222 216 220 223 229 227 238 242 252 265 270 268 266 274 279 282 284 285 287 283 286 284 282 278
183 191 198 192 196 201 211 214 213 212 215 228 233 228 220 221 224 224 233 236 245 257 253 244 257 256 259 269 271 273 278 278 282 286 284 282 278 276
179 195 202 208 212 213 213 213 213 219 224 223 223 224 226 228 227 218 221 235 250 257 261 258 246 246 247 247 242 268 276 283 286 280 278 281 282 280
187 200 203 206 212 217 219 221 221 220 220 220 224 226 229 233 232 230 231 238 249 257 260 254 251 257 270 278 228 211 270 284 286 279 275 278 284 292
205 207 203 204 208 211 216 218 218 215 214 217 221 228 229 232 235 237 237 245 251 255 257 252 253 260 268 286 295 279 226 269 282 282 284 280 281 284
196 201 204 206 209 209 210 212 212 216 218 215 218 224 230 232 238 244 244 243 251 256 259 261 262 255 268 278 277 280 268 224 257 280 290 289 291 287
191 191 196 203 208 209 207 206 208 214 226 226 227 229 231 235 239 244 246 248 249 257 266 274 276 257 257 263 273 285 288 279 241 244 254 265 289 291
196 195 193 197 207 210 209 209 212 220 222 229 229 229 232 238 247 250 252 254 258 262 267 272 271 259 261 266 275 283 290 294 294 287 272 240 249 267